Weather History for Springfield, MO

Change the Weather History Date:

Thursday, August 14, 2014

  Actual Average Record
Temperature  
Mean Temperature 74 °F 78 °F  
Max Temperature 89 °F 90 °F 102 °F (2007)
Min Temperature 59 °F 67 °F 53 °F (1967)
Degree Days  
Heating Degree Days 0 0  
Month to date heating degree days 0 0  
Since 1 June heating degree days 0 9  
Since 1 July heating degree days 0 0  
Cooling Degree Days 9 13  
Month to date cooling degree days 163 195  
Year to date cooling degree days 942 983  
Since 1 June cooling degree days 749 868  
Growing Degree Days 24 (Base 50)    
Moisture  
Dew Point 57 °F    
Average Humidity 61    
Maximum Humidity 90    
Minimum Humidity 31    
Precipitation  
Precipitation 0.00 in 0.11 in 2.06 in (1890)
Month to date precipitation 1.12 1.47  
Year to date precipitation 21.13 28.03  
Snow  
Snow 0.00 in - - ()
Month to date snowfall 0.0  
Since 1 June snowfall 0.0  
Since 1 July snowfall 0.0  
Snow Depth 0.00 in    
Sea Level Pressure  
Sea Level Pressure 30.03 in    
Wind  
Wind Speed 3 mph (South)    
Max Wind Speed 9 mph    
Max Gust Speed 16 mph    
Visibility 10 miles    
Events      
T = Trace of Precipitation, MM = Missing Value Source: NWS Daily Summary

Daily Weather History Graph

Daily Weather History Graph

Search for Another Location

Airport:

Trip Planner

Search our weather history database for the weather conditions in past years. The results will help you decide how hot, cold, wet, or windy it might be!

Date:

Astronomy

Aug. 14, 2014 Rise Set
Actual Time 6:29 AM CDT 8:06 PM CDT
Civil Twilight 6:01 AM CDT 8:34 PM CDT
Nautical Twilight 5:27 AM CDT 9:07 PM CDT
Astronomical Twilight 4:52 AM CDT 9:43 PM CDT
Moon 10:38 PM CDT (8/14) 10:59 AM CDT (8/14)
Length of Visible Light 14h 33m
Length of Day
13h 37m
Waning Gibbous, 79% of the Moon is Illuminated
Aug 14
Waning Gibbous
Aug 17
Last Quarter
Aug 25
New
Sep 2
First Quarter
Sep 8
Full

Hourly Weather History & Observations

Time (CDT) Temp. Heat Index Dew Point Humidity Pressure Visibility Wind Dir Wind Speed Gust Speed Precip Events Conditions
12:52 AM 69.1 °F - 55.9 °F 63% 30.05 in 10.0 mi ENE 5.8 mph - N/A   Clear
1:52 AM 64.9 °F - 55.9 °F 73% 30.05 in 10.0 mi Calm Calm - N/A   Clear
2:52 AM 63.0 °F - 55.9 °F 78% 30.04 in 10.0 mi Calm Calm - N/A   Clear
3:52 AM 60.1 °F - 55.0 °F 83% 30.04 in 10.0 mi Calm Calm - N/A   Clear
4:52 AM 61.0 °F - 57.0 °F 87% 30.05 in 10.0 mi Calm Calm - N/A   Clear
5:52 AM 59.0 °F - 55.9 °F 90% 30.06 in 10.0 mi ESE 3.5 mph - N/A   Clear
6:52 AM 59.0 °F - 55.9 °F 90% 30.07 in 10.0 mi South 3.5 mph - N/A   Clear
7:52 AM 64.9 °F - 59.0 °F 81% 30.08 in 10.0 mi South 4.6 mph - N/A   Clear
8:52 AM 70.0 °F - 60.1 °F 71% 30.08 in 10.0 mi SSE 4.6 mph - N/A   Clear
9:52 AM 75.9 °F - 61.0 °F 60% 30.09 in 10.0 mi SSW 5.8 mph - N/A   Clear
10:52 AM 81.0 °F 81.1 °F 57.9 °F 45% 30.08 in 10.0 mi WSW 4.6 mph - N/A   Clear
11:52 AM 82.9 °F 82.1 °F 55.9 °F 39% 30.06 in 10.0 mi North - - N/A   Clear
12:52 PM 82.9 °F 82.0 °F 55.0 °F 38% 30.04 in 10.0 mi Calm Calm - N/A   Clear
1:52 PM 84.9 °F 83.7 °F 55.9 °F 37% 30.03 in 10.0 mi WNW 3.5 mph - N/A   Clear
2:52 PM 86.0 °F 84.0 °F 53.1 °F 32% 30.01 in 10.0 mi North - - N/A   Clear
3:52 PM 88.0 °F 85.9 °F 54.0 °F 31% 30.00 in 10.0 mi Variable 3.5 mph - N/A   Clear
4:52 PM 87.1 °F 85.3 °F 55.0 °F 33% 29.99 in 10.0 mi Variable 4.6 mph - N/A   Clear
5:52 PM 87.1 °F 85.3 °F 55.0 °F 33% 29.98 in 10.0 mi South 4.6 mph - N/A   Clear
6:52 PM 84.9 °F 84.2 °F 57.9 °F 40% 29.97 in 10.0 mi SSW 8.1 mph - N/A   Clear
7:52 PM 79.0 °F - 62.1 °F 56% 29.98 in 10.0 mi South 5.8 mph - N/A   Clear
8:52 PM 73.0 °F - 62.1 °F 68% 29.98 in 10.0 mi SSW 3.5 mph - N/A   Clear
9:52 PM 72.0 °F - 61.0 °F 68% 29.99 in 10.0 mi SSE 3.5 mph - N/A   Clear
10:52 PM 70.0 °F - 61.0 °F 73% 29.99 in 10.0 mi Calm Calm - N/A   Clear
11:52 PM 68.0 °F - 61.0 °F 78% 29.99 in 10.0 mi Calm Calm - N/A   Clear